Total_Precipitation_Accumulation
0.00 0.00 0.00 0.00 0.00 0.00 0.00 0.01 0.02 0.02 0.02 0.01 0.02 0.00 0.00 0.01 0.03 0.06 0.06 0.09 0.15 0.19 0.26 0.38 0.49 0.53 0.59
0.00 0.00 0.00 0.00 0.00 0.00 0.01 0.02 0.01 0.00 0.00 0.00 0.00 0.00 0.01 0.02 0.06 0.09 0.12 0.15 0.20 0.24 0.27 0.26 0.28 0.35 0.40
0.01 0.00 0.00 0.03 0.04 0.01 0.00 0.00 0.00 0.00 0.00 0.00 0.01 0.01 0.02 0.04 0.07 0.10 0.13 0.12 0.11 0.09 0.10 0.11 0.13 0.17 0.22
0.12 0.13 0.13 0.07 0.03 0.01 0.00 0.00 0.00 0.00 0.00 0.01 0.02 0.04 0.05 0.05 0.03 0.02 0.01 0.02 0.03 0.06 0.08 0.11 0.11 0.10 0.10
0.30 0.24 0.11 0.03 0.00 0.00 0.01 0.02 0.02 0.01 0.01 0.02 0.03 0.02 0.00 0.00 0.00 0.01 0.02 0.06 0.10 0.13 0.15 0.16 0.16 0.16 0.15
0.34 0.14 0.02 0.00 0.01 0.05 0.16 0.14 0.09 0.00 0.03 0.02 0.00 0.00 0.00 0.00 0.02 0.03 0.04 0.05 0.06 0.09 0.12 0.13 0.13 0.15 0.16
0.04 0.01 0.02 0.05 0.23 0.23 0.13 0.12 0.07 0.01 0.05 0.07 0.01 0.01 0.01 0.01 0.01 0.01 0.03 0.04 0.06 0.09 0.12 0.13 0.12 0.11 0.10
0.01 0.03 0.08 0.09 0.08 0.15 0.13 0.10 0.05 0.01 0.03 0.14 0.02 0.01 0.00 0.00 0.01 0.01 0.03 0.12 0.18 0.19 0.20 0.20 0.17 0.15 0.14
0.07 0.05 0.02 0.01 0.01 0.13 0.20 0.19 0.12 0.01 0.01 0.09 0.04 0.02 0.01 0.00 0.00 0.04 0.06 0.07 0.05 0.06 0.07 0.09 0.10 0.12 0.14
0.01 0.00 0.00 0.00 0.01 0.04 0.19 0.54 0.25 0.17 0.01 0.27 0.15 0.11 0.34 0.03 0.01 0.02 0.01 0.01 0.05 0.05 0.05 0.07 0.08 0.12 0.16
0.00 0.00 0.00 0.01 0.01 0.01 0.07 0.47 0.71 0.42 0.02 0.49 0.57 0.10 0.28 0.11 0.01 0.01 0.01 0.08 0.17 0.16 0.18 0.23 0.25 0.29 0.38
0.01 0.01 0.02 0.02 0.01 0.01 0.02 0.06 0.20 0.48 0.17 0.31 0.85 0.33 0.48 0.25 0.03 0.01 0.01 0.13 0.38 0.50 0.51 0.52 0.53 0.47 0.45
0.05 0.03 0.03 0.03 0.03 0.03 0.02 0.01 0.03 0.04 0.08 0.18 0.46 0.37 0.42 0.37 0.18 0.04 0.17 0.17 0.44 0.69 0.52 0.44 0.48 0.52 0.49
0.09 0.04 0.02 0.03 0.05 0.07 0.15 0.06 0.16 0.05 0.05 0.09 0.21 0.36 0.37 0.14 0.24 0.20 0.20 0.42 0.39 0.46 0.56 0.47 0.47 0.59 0.57
0.10 0.10 0.06 0.05 0.05 0.05 0.18 0.24 0.28 0.17 0.11 0.06 0.06 0.09 0.15 0.21 0.27 0.18 0.25 0.31 0.51 0.70 0.66 0.56 0.62 0.92 0.80
0.09 0.10 0.16 0.14 0.15 0.10 0.16 0.25 0.27 0.17 0.18 0.14 0.10 0.09 0.09 0.11 0.25 0.43 0.43 0.45 0.60 0.66 0.67 0.73 0.75 0.89 0.70
0.15 0.18 0.23 0.17 0.14 0.15 0.15 0.17 0.14 0.13 0.16 0.19 0.18 0.28 0.30 0.15 0.14 0.46 0.73 0.64 0.59 0.55 0.60 0.67 0.88 1.00 0.71